Flag for Paraguay Weather past 2 weeks in Asuncion, Paraguay

Now
81 °F

Scattered clouds.


Feels Like: 81 °F
Forecast: 65 / 80 °F
Wind: 14 mph from Northeast

Location: Asuncion / Aeropuerto

Current Time: Jul 22, 2014 at 3:47:55 PM

Latest Report: Jul 22, 2014 at 1:00 PM


Visibility: N/A

Pressure: 29.77 "Hg

Humidity: 48%

Dew point: 59 °F

Location of AsuncionLocation

Historic Weather in Asuncion — Graph

°F

Asuncion temperature yesterday

Maximum temperature yesterday: 79 °F (at 3:00 PM)
Minimum temperature yesterday: 59 °F (at 2:00 AM)
Average temperature yesterday: 68 °F

Past Weeks' High & Low Weather Summary

 TemperatureHumidityPressure
High84 °F (Jul 16, 3:00 PM)100% (Jul 8, 5:00 AM)30.36 "Hg (Jul 8, 5:00 AM)
Low43 °F (Jul 14, 3:00 AM)33% (Jul 18, 3:00 PM)29.77 "Hg (Jul 22, 1:00 PM)
Average66 °F75%30.07 "Hg
* Reported Jul 7 1:00 PM — Jul 22 1:00 PM, Asuncion, Weather by CustomWeather, © 2014

Note: Actual official high and low records may vary slightly from our data, if they occured in-between our weather recording intervals... More about our weather records

Advertising

Asuncion weather history for previous 24 hours

 ConditionsComfort  
Time TempWeatherWind HumidityBarometerVisibility
1:00 PM
Jul 22
81 °FScattered clouds.14 mph48%29.77 "HgN/A
12:00 PM81 °FPartly sunny.15 mph42%29.80 "HgN/A
11:00 AM77 °FScattered clouds.16 mph44%29.83 "HgN/A
10:00 AM75 °FScattered clouds.16 mph47%29.86 "HgN/A
9:30 AM73 °FPartly sunny.14 mph50%29.86 "HgN/A
9:00 AM73 °FScattered clouds.14 mph50%29.86 "HgN/A
8:30 AM72 °FPassing clouds.14 mph53%29.86 "HgN/A
8:00 AM70 °FPassing clouds.10 mph57%29.86 "HgN/A
7:30 AM70 °FScattered clouds.10 mph57%29.86 "HgN/A
7:00 AM68 °FPartly sunny.10 mph60%29.86 "HgN/A
6:00 AM68 °FBroken clouds.9 mph60%29.86 "HgN/A
5:00 AM68 °FPassing clouds.10 mph64%29.83 "HgN/A
4:00 AM68 °FClear.9 mph64%29.83 "Hg10 mi
3:00 AM68 °FClear.10 mph64%29.86 "Hg10 mi
2:00 AM68 °FClear.9 mph64%29.83 "Hg10 mi
1:00 AM70 °FClear.9 mph64%29.86 "Hg10 mi
12:00 AM70 °FClear.9 mph64%29.86 "Hg10 mi
11:00 PM
Jul 21
70 °FClear.12 mph64%29.86 "Hg10 mi
10:00 PM72 °FClear.14 mph61%29.86 "Hg10 mi
9:00 PM72 °FClear.10 mph61%29.86 "Hg10 mi
8:00 PM73 °FClear.10 mph57%29.86 "Hg10 mi
7:00 PM73 °FClear.8 mph61%29.83 "Hg10 mi
6:00 PM73 °FClear.8 mph61%29.86 "Hg10 mi
5:00 PM77 °FClear.8 mph54%29.86 "Hg10 mi
4:00 PM79 °FSunny.13 mph48%29.86 "Hg10 mi
3:00 PM79 °FSunny.14 mph51%29.89 "Hg10 mi
Weather by CustomWeather, © 2014

See weather overviewHow to use our weather pages